KE5VBO-1 Weather Reports


Display with metric or nautical units.
time (UTC)temp
F
wind
direction
speed
MPH
gust
MPH
rain 1hr
in
rain 24hr
in
rain mn
in
humidity
%
barometer
mb
20221205111521 53 201 1.0 8.0 0.00 0.00 0.00 1 1011.4
20221205110014 53 222 3.0 9.0 0.00 0.00 0.00 1 1011.8
20221205104509 53 211 1.0 5.0 0.00 0.00 0.00 1 1012.3
20221205103005 53 183 1.0 5.0 0.00 0.00 0.00 1 1012.3
20221205101501 53 191 0.0 4.0 0.00 0.00 0.00 1 1012.4
20221205100057 53 204 0.0 6.0 0.00 0.00 0.00 1 1012.6
20221205094553 52 196 2.0 6.0 0.00 0.00 0.00 1 1012.8
20221205093048 52 212 0.0 5.0 0.00 0.00 0.00 1 1013.2
20221205091605 52 225 0.0 4.0 0.00 0.00 0.00 1 1013.7
20221205090042 52 201 1.0 4.0 0.00 0.00 0.00 1 1013.6
20221205084535 52 218 2.0 6.0 0.00 0.00 0.00 1 1013.7
20221205083030 52 209 1.0 7.0 0.00 0.00 0.00 1 1014.0
20221205081526 52 194 2.0 6.0 0.00 0.00 0.00 1 1014.2
20221205080022 52 213 0.0 5.0 0.00 0.00 0.00 1 1014.5
20221205074526 52 218 1.0 7.0 0.00 0.00 0.00 1 1014.4
20221205073014 51 218 1.0 6.0 0.00 0.00 0.00 1 1014.6
20221205071509 51 233 1.0 4.0 0.00 0.00 0.00 1 1014.6
20221205070009 51 177 1.0 6.0 0.00 0.00 0.00 1 1014.9
20221205064612 51 215 3.0 6.0 0.00 0.00 0.00 1 1015.2
20221205063102 51 206 1.0 9.0 0.00 0.00 0.00 1 1015.4
20221205061606 51 212 1.0 9.0 0.00 0.00 0.00 1 1015.9
20221205060046 51 181 1.0 6.0 0.00 0.00 0.00 1 1015.9
20221205054542 51 192 2.0 7.0 0.00 0.00 0.00 1 1016.1
20221205053040 51 213 2.0 8.0 0.00 0.00 0.00 1 1016.6
20221205051533 51 201 2.0 7.0 0.00 0.00 0.00 1 1016.4
20221205050030 51 190 2.0 7.0 0.00 0.00 0.00 1 1016.7
20221205044525 51 220 4.0 10.0 0.00 0.00 0.00 1 1016.9
20221205043020 51 219 5.0 10.0 0.00 0.00 0.00 1 1017.0
20221205041545 51 219 1.0 10.0 0.00 0.00 0.00 1 1017.1
20221205040004 51 226 3.0 11.0 0.00 0.00 0.00 1 1017.3
20221205034544 51 214 2.0 14.0 0.00 0.00 0.00 1 1017.5
20221205033018 50 194 2.0 11.0 0.00 0.00 0.00 1 1017.5
20221205031605 50 178 5.0 10.0 0.00 0.00 0.00 1 1017.2
20221205030028 51 163 6.0 11.0 0.00 0.00 0.00 1 1017.2
20221205024600 51 218 3.0 15.0 0.00 0.00 0.00 1 1017.4
20221205023044 51 204 6.0 14.0 0.00 0.00 0.00 1 1017.3
20221205021505 51 204 5.0 12.0 0.00 0.00 0.00 1 1017.5
20221205020031 51 201 6.0 12.0 0.00 0.00 0.00 11 1017.9
20221205014510 51 220 6.0 14.0 0.00 0.00 0.00 23 1017.9
20221205013049 52 215 3.0 14.0 0.00 0.00 0.00 33 1018.0
20221205011525 52 219 4.0 11.0 0.00 0.00 0.00 44 1018.2
20221205010005 52 207 3.0 7.0 0.00 0.00 0.00 47 1018.6
20221205004600 52 215 5.0 11.0 0.00 0.00 0.00 50 1018.5
20221205003015 52 189 1.0 6.0 0.00 0.00 0.00 50 1018.7
20221205001601 52 199 2.0 4.0 0.00 0.00 0.00 47 1018.8
20221205000041 52 172 0.0 0.0 0.00 0.00 0.00 49 1019.2
20221204234522 53 172 0.0 0.0 0.00 0.00 0.00 50 1019.4
20221204233050 53 172 0.0 5.0 0.00 0.00 0.00 51 1019.2
20221204231501 53 112 0.0 2.0 0.00 0.00 0.00 52 1019.4
20221204230046 53 111 0.0 4.0 0.00 0.00 0.00 52 1019.5
20221204224511 54 112 0.0 3.0 0.00 0.00 0.00 53 1019.7
20221204223049 54 110 0.0 4.0 0.00 0.00 0.00 53 1019.9
20221204221533 54 114 2.0 4.0 0.00 0.00 0.00 53 1019.8
20221204220012 55 111 0.0 6.0 0.00 0.00 0.00 52 1020.0
20221204214606 55 107 1.0 6.0 0.00 0.00 0.00 53 1020.1
20221204213035 55 147 0.0 2.0 0.00 0.00 0.00 53 1020.2
20221204211525 55 147 0.0 0.0 0.00 0.00 0.00 53 1020.6
20221204210105 56 147 0.0 0.0 0.00 0.00 0.00 53 1020.7
20221204204529 56 147 0.0 0.0 0.00 0.00 0.00 53 1020.8
20221204203027 56 150 0.0 2.0 0.00 0.00 0.00 53 1020.8
20221204201514 56 152 0.0 3.0 0.00 0.00 0.00 53 1021.0
20221204200102 56 106 1.0 6.0 0.00 0.00 0.00 52 1021.1
20221204194541 56 212 2.0 5.0 0.00 0.00 0.00 52 1021.5
20221204193022 55 214 0.0 6.0 0.00 0.00 0.00 51 1021.7
20221204191509 54 210 0.0 4.0 0.00 0.00 0.00 47 1022.2
20221204190027 52 217 1.0 4.0 0.00 0.00 0.00 47 1022.3
20221204184606 52 29 0.0 1.0 0.00 0.00 0.00 46 1022.5
20221204183105 52 38 0.0 0.0 0.00 0.00 0.00 42 1022.8
20221204181521 51 34 0.0 2.0 0.00 0.00 0.00 38 1023.1
20221204180052 49 33 0.0 0.0 0.00 0.00 0.00 34 1023.7
20221204174516 49 11 0.0 0.0 0.00 0.00 0.00 27 1024.3
20221204173059 48 11 0.0 4.0 0.00 0.00 0.00 20 1024.6
20221204171544 48 188 0.0 1.0 0.00 0.00 0.00 33 1025.0
20221204170057 48 187 0.0 0.0 0.00 0.00 0.00 32 1025.1
20221204164546 48 187 0.0 1.0 0.00 0.00 0.00 32 1025.4
20221204163032 47 187 0.0 0.0 0.00 0.00 0.00 25 1025.5
20221204161621 47 187 0.0 0.0 0.00 0.00 0.00 31 1025.7
20221204160037 47 187 0.0 1.0 0.00 0.00 0.00 47 1025.4
20221204154511 47 188 0.0 0.0 0.00 0.00 0.00 47 1025.3
20221204153055 47 188 0.0 2.0 0.00 0.00 0.00 47 1025.2
20221204151525 46 189 0.0 4.0 0.00 0.00 0.00 46 1024.8
20221204150113 46 187 1.0 5.0 0.00 0.00 0.00 46 1024.7
20221204144539 45 212 0.0 2.0 0.00 0.00 0.00 45 1024.9
20221204143021 45 212 1.0 4.0 0.00 0.00 0.00 45 1025.1
20221204141518 44 214 1.0 5.0 0.00 0.00 0.00 45 1025.3
20221204140042 44 221 0.0 6.0 0.00 0.00 0.00 44 1025.4
20221204134611 44 225 0.0 4.0 0.00 0.00 0.00 44 1025.6
20221204133059 44 160 0.0 5.0 0.00 0.00 0.00 45 1024.8
20221204131528 44 162 1.0 6.0 0.00 0.00 0.00 47 1024.4
20221204130118 44 152 0.0 3.0 0.00 0.00 0.00 50 1025.2
20221204124514 44 118 0.0 1.0 0.00 0.00 0.00 51 1025.1
20221204123015 44 115 0.0 1.0 0.00 0.00 0.00 51 1025.8
20221204121608 44 115 0.0 4.0 0.00 0.00 0.00 51 1025.8
20221204120034 44 77 0.0 4.0 0.00 0.00 0.00 50 1026.1
20221204114520 44 8 0.0 1.0 0.00 0.00 0.00 47 1026.3
20221204113005 44 4 0.0 0.0 0.00 0.00 0.00 48 1026.8